User: anonymous   Login
Location: Unspecified
(0.0000°N, 0.0000°E)
Time: 19:21:18
(UTC+00:00)
Language:

Galileo 5 - Orbit

View from above orbital plane
View from above orbital plane
View from above satellite
View from above satellite

Ground track
Ground track

The orbit data is extracted from the following two-line orbital elements,

1 40128U 14050A   18139.40157555 -.00000093  00000-0  00000+0 0  9991
2 40128  50.4650  31.7441 1650139  74.7636 302.8483  1.85518300 25517
Epoch (UTC): 19 May 2018 09:38:16
Eccentricity: 0.1650139
inclination: 50.4650°
perigee height: 16982 km
apogee height: 26216 km
right ascension of ascending node: 31.7441°
argument of perigee: 74.7636°
revolutions per day: 1.85518300
mean anomaly at epoch: 302.8483°
orbit number at epoch: 2551

The dashed part of the orbit path shows where the satellite is in the earth's shadow,  

DLR